Home   Weather   Modesto   Past weeks

Flag for USA Past Weather in Modesto, California, USA — Yesterday and Last 2 Weeks

Now
66 °F

Clear.


Feels Like: 66 °F
Forecast: 60 / 94 °F
Wind: 6 mph from Southeast

Location: Modesto City-County-Sham Field

Current Time: Sep 25, 2016 at 12:20:54 AM

Latest Report: Sep 24, 2016 at 11:53 PM


Visibility: 10 mi

Pressure: 30.02 "Hg

Humidity: 63%

Dew Point: 53 °F

Location of ModestoLocation

Past Weather in Modesto — Graph

°F

Modesto Temperature Yesterday

Maximum temperature yesterday: 87 °F (at 3:53 PM)
Minimum temperature yesterday: 56 °F (at 6:53 AM)
Average temperature yesterday: 72 °F

High & Low Weather Summary for the Past Weeks

 TemperatureHumidityPressure
High101 °F (Sep 19, 3:53 PM)83% (Sep 13, 5:53 AM)30.12 "Hg (Sep 13, 5:53 AM)
Low52 °F (Sep 13, 4:53 AM)10% (Sep 21, 3:53 PM)29.75 "Hg (Sep 12, 5:53 PM)
Average73 °F43%29.94 "Hg
* Reported Sep 9 10:53 PM — Sep 24 10:53 PM, Modesto, Weather by CustomWeather, © 2016

Note: Actual official high and low records may vary slightly from our data, if they occured in-between our weather recording intervals... More about our weather records

Advertising

Modesto Weather History for the Previous 24 Hours

Scroll right to see more
 ConditionsComfort  
Time TempWeatherWind HumidityBarometerVisibility
10:53 PM
Sat, Sep 24
69 °FClear.No wind53%30.02 "Hg10 mi
9:53 PM73 °FClear.No wind48%30.02 "Hg10 mi
8:53 PM76 °FClear.No wind39%30.02 "Hg10 mi
7:53 PM76 °FClear.No wind40%30.01 "Hg10 mi
6:53 PM84 °FPassing clouds.3 mph26%30.01 "Hg10 mi
5:53 PM85 °FSunny.9 mph26%30.01 "Hg10 mi
4:53 PM87 °FSunny.N/A24%30.03 "Hg10 mi
3:53 PM87 °FSunny.8 mph24%30.03 "Hg10 mi
2:53 PM84 °FSunny.3 mph27%30.05 "Hg10 mi
1:53 PM83 °FSunny.N/A31%30.07 "Hg10 mi
12:53 PM80 °FSunny.3 mph34%30.09 "Hg10 mi
11:53 AM77 °FSunny.7 mph39%30.11 "Hg10 mi
10:53 AM74 °FSunny.No wind43%30.11 "Hg10 mi
9:53 AM70 °FSunny.3 mph47%30.11 "Hg10 mi
8:53 AM66 °FSunny.5 mph54%30.11 "Hg10 mi
7:53 AM61 °FSunny.3 mph65%30.11 "Hg10 mi
6:53 AM56 °FClear.No wind75%30.10 "Hg10 mi
5:53 AM57 °FClear.No wind69%30.08 "Hg10 mi
4:53 AM58 °FClear.6 mph67%30.06 "Hg10 mi
3:53 AM61 °FClear.No wind60%30.06 "Hg10 mi
2:53 AM65 °FClear.5 mph49%30.07 "Hg10 mi
1:53 AM65 °FClear.7 mph49%30.08 "Hg10 mi
12:53 AM64 °FClear.No wind50%30.08 "Hg10 mi
Weather by CustomWeather, © 2016

See weather overviewHow to use our weather pages